This demonstration page uses our WeatherBlox Daily Observations layout. Learn more.

Left ArrowRight Arrow

39.51506, -84.39828

Hourly Observations for October 17, 2015

Temp ( °F °C ) Dew Point ( °F °C ) Humidity (%) Winds ( mph kmh ) Pressure ( in mb ) Visibility ( mi km ) Precip ( " mm )
12:15 am 00:15 Clear 44 6.7 29 -1.6 56 56 NNE 3 6 30.30 1026 10 16 N/A
12:35 am 00:35 Clear 44 6.4 29 -1.4 58 58 N N/A 30.33 1027 10 16 N/A
12:55 am 00:55 Clear 42 5.8 30 -1 62 62 N N/A 30.33 1027 10 16 N/A
1:15 am 01:15 Clear 40 4.3 31 -0.5 71 71 N N/A 30.33 1027 10 16 N/A
1:35 am 01:35 Clear 39 4 32 -0.1 75 75 N N/A 30.33 1027 10 16 N/A
1:55 am 01:55 Clear 39 3.7 33 0.5 80 80 N N/A 30.33 1027 10 16 N/A
2:15 am 02:15 Clear 39 4 33 0.5 78 78 N N/A 30.33 1027 10 16 N/A
2:35 am 02:35 Clear 37 2.6 31 -0.3 81 81 N N/A 30.33 1027 10 16 N/A
2:55 am 02:55 Clear 37 2.6 32 undefined 83 83 N N/A 30.33 1027 10 16 N/A
3:15 am 03:15 Clear 34 1.3 30 -0.9 85 85 N N/A 30.33 1027 10 16 N/A
3:35 am 03:35 Clear 37 2.6 32 undefined 83 83 N N/A 30.33 1027 10 16 N/A
3:55 am 03:55 Clear 35 1.5 30 -1.1 83 83 N N/A 30.33 1027 10 16 N/A
4:15 am 04:15 Clear 36 2 31 -0.5 84 84 N N/A 30.33 1027 10 16 N/A
4:35 am 04:35 Clear 34 1.2 30 -1 85 85 N N/A 30.33 1027 10 16 N/A
4:55 am 04:55 Clear 34 1.2 31 -0.5 89 89 N N/A 30.33 1027 10 16 N/A
5:15 am 05:15 Clear 34 1.2 31 -0.5 89 89 N 3 6 30.36 1028 10 16 N/A
5:35 am 05:35 Clear 34 1.2 31 -0.5 89 89 N N/A 30.36 1028 10 16 N/A
5:55 am 05:55 Clear 34 1.2 31 -0.5 89 89 N N/A 30.36 1028 10 16 N/A
6:15 am 06:15 Clear 34 1.2 31 -0.5 89 89 N N/A 30.36 1028 10 16 N/A
6:35 am 06:35 Clear 34 1.2 31 -0.3 90 90 N N/A 30.36 1028 10 16 N/A
6:55 am 06:55 Clear 34 1.2 31 -0.3 90 90 N N/A 30.39 1029 10 16 N/A
7:15 am 07:15 Clear 34 1 31 -0.4 90 90 N N/A 30.39 1029 7 11 N/A
7:35 am 07:35 Clear 32 undefined 29 -1.7 88 88 N N/A 30.39 1029 10 16 N/A
7:55 am 07:55 Sunny 32 undefined 29 -1.6 89 89 N N/A 30.39 1029 10 16 N/A
8:15 am 08:15 Sunny 30 -1.1 27 -2.8 88 88 N N/A 30.39 1029 10 16 N/A
8:35 am 08:35 Partly Cloudy 34 1.2 32 -0.2 91 91 N N/A 30.39 1029 10 16 N/A
8:55 am 08:55 Partly Cloudy 35 1.7 32 undefined 89 89 N N/A 30.42 1030 10 16 N/A
9:15 am 09:15 Sunny 38 3.1 34 1.1 87 87 N N/A 30.42 1030 10 16 N/A
9:35 am 09:35 Partly Cloudy 39 4 33 0.7 79 79 N N/A 30.42 1030 10 16 N/A
9:55 am 09:55 Mostly Cloudy 42 5.5 33 0.8 72 72 N N/A 30.42 1030 10 16 N/A
10:15 am 10:15 Cloudy 42 5.8 32 undefined 67 67 N N/A 30.42 1030 10 16 N/A
10:35 am 10:35 Cloudy 44 6.8 30 -0.9 58 58 N N/A 30.42 1030 10 16 N/A
10:55 am 10:55 Cloudy 47 8.2 28 -2.5 47 47 N N/A 30.39 1029 10 16 N/A
11:15 am 11:15 Cloudy 47 8.3 28 -2.5 47 47 N N/A 30.39 1029 10 16 N/A
11:35 am 11:35 Cloudy 49 9.6 29 -1.4 47 47 N N/A 30.39 1029 10 16 N/A
11:55 am 11:55 Cloudy 49 9.6 29 -1.8 45 45 N N/A 30.39 1029 10 16 N/A
12:15 pm 12:15 Mostly Cloudy 49 9.6 29 -1.8 45 45 N N/A 30.39 1029 10 16 N/A
12:35 pm 12:35 Partly Cloudy 52 11 30 -1.2 43 43 WSW 8 13 30.39 1029 10 16 N/A
12:55 pm 12:55 Partly Cloudy 53 11.9 31 -0.7 42 42 NW 8 13 30.39 1029 10 16 N/A
1:15 pm 13:15 Mostly Cloudy 54 12.3 31 -0.8 41 41 NW 5 7 30.39 1029 10 16 N/A
1:35 pm 13:35 Cloudy 55 12.5 31 -0.5 41 41 WNW 8 13 30.39 1029 10 16 N/A
1:55 pm 13:55 Cloudy 53 11.8 29 -1.5 40 40 NNW 6 9 30.36 1028 10 16 N/A
2:15 pm 14:15 Cloudy 55 12.5 28 -2.3 36 36 WNW 8 13 30.36 1028 10 16 N/A
2:35 pm 14:35 Cloudy 55 12.5 26 -3.6 33 33 WNW 13 20 30.36 1028 10 16 N/A
2:55 pm 14:55 Cloudy 55 12.5 24 -4.3 31 31 NW 7 11 30.36 1028 10 16 N/A
3:15 pm 15:15 Cloudy 55 12.5 24 -4.4 31 31 W 9 15 30.36 1028 10 16 N/A
3:35 pm 15:35 Cloudy 55 12.5 24 -4.7 30 30 WNW 9 15 30.36 1028 10 16 N/A
3:55 pm 15:55 Cloudy 55 12.5 24 -4.7 30 30 NW 15 24 30.36 1028 10 16 N/A
4:15 pm 16:15 Cloudy 55 12.5 23 -4.9 30 30 NW 18 30 30.36 1028 10 16 N/A
4:35 pm 16:35 Mostly Cloudy 55 12.5 25 -4.1 31 31 NW 16 26 30.36 1028 10 16 N/A
4:55 pm 16:55 Mostly Cloudy 55 12.5 27 -2.6 35 35 NW 9 15 30.36 1028 10 16 N/A
5:15 pm 17:15 Cloudy 55 12.5 29 -1.5 38 38 N 8 13 30.36 1028 10 16 N/A
5:35 pm 17:35 Cloudy 52 11 28 -2.2 40 40 N 13 20 30.39 1029 10 16 N/A
5:55 pm 17:55 Mostly Cloudy 50 10 27 -2.8 41 41 N 12 19 30.39 1029 10 16 N/A
6:15 pm 18:15 Partly Cloudy 49 9.6 27 -2.6 43 43 N 5 7 30.39 1029 10 16 N/A
6:35 pm 18:35 Mostly Cloudy 49 9.6 27 -2.8 42 42 N 6 9 30.39 1029 10 16 N/A
6:55 pm 18:55 Mostly Cloudy 49 9.6 28 -2.3 44 44 N 3 6 30.39 1029 10 16 N/A
7:15 pm 19:15 Clear 49 9.6 29 -1.5 46 46 N N/A 30.39 1029 10 16 N/A
7:35 pm 19:35 Clear 47 8.2 28 -2.2 48 48 N N/A 30.39 1029 10 16 N/A
7:55 pm 19:55 Clear 42 5.8 28 -2 58 58 N N/A 30.42 1030 10 16 N/A
8:15 pm 20:15 Hazy 40 4.4 30 -0.9 69 69 N N/A 30.42 1030 5 8 N/A
8:35 pm 20:35 Clear 37 3 31 -0.7 77 77 N N/A 30.42 1030 10 16 N/A
8:55 pm 20:55 Clear 37 2.7 30 -0.9 77 77 NNW 3 6 30.45 1031 10 16 N/A
9:15 pm 21:15 Clear 37 2.6 31 -0.7 79 79 NNW 3 6 30.45 1031 10 16 N/A
9:35 pm 21:35 Clear 37 3 28 -2 70 70 NNW 5 7 30.45 1031 10 16 N/A
9:55 pm 21:55 Clear 39 4 27 -2.6 62 62 N 5 7 30.45 1031 10 16 N/A
10:15 pm 22:15 Clear 39 4 27 -2.9 61 61 N 5 7 30.45 1031 10 16 N/A
10:35 pm 22:35 Clear 39 4 27 -2.6 62 62 N N/A 30.45 1031 10 16 N/A
10:55 pm 22:55 Clear 37 2.6 27 -2.8 68 68 N N/A 30.48 1032 10 16 N/A
11:15 pm 23:15 Clear 37 2.6 28 -2.1 71 71 N N/A 30.48 1032 10 16 N/A
11:35 pm 23:35 Clear 34 1.2 28 -2.3 78 78 N N/A 30.48 1032 10 16 N/A
11:55 pm 23:55 Clear 36 2.4 27 -2.8 69 69 NE 3 6 30.48 1032 10 16 N/A

Powered by AerisWeather